Location: San Gennaro Vesuviano
(40.8833°N, 14.5333°E)
Time: 22:42:27
(UTC+00:00)

NOSS 0 Rocket - Pass Details

Date: 22 April 2021
Orbit: 935 x 955 km, 70.0° (Epoch: 10 May)

Event Time Altitude Azimuth Distance (km) Brightness Sun altitude
Rises 18:26:03 0° 339° (NNW) 3,626 7.7 -7.4°
Reaches altitude 10° 18:28:41 10° 344° (NNW) 2,680 6.9 -7.8°
Maximum altitude 18:34:43 50° 60° (ENE) 1,201 4.3 -8.9°
Enters shadow 18:40:38 11° 134° (SE) 2,639 5.7 -9.9°
